GW5258 Weather Reports


time (UTC)temp
C
wind
direction
speed
KPH
gust
KPH
rain 1hr
cm
rain 24hr
cm
rain mn
cm
humidity
%
barometer
mb
20260503021828 4 197 0.0 0.0 0.00 0.00 0.00 87 1018.9
20260503021325 5 197 0.0 0.0 0.00 0.00 0.00 87 1018.9
20260503020822 5 197 0.0 0.0 0.00 0.00 0.00 86 1018.6
20260503020320 5 197 0.0 0.0 0.00 0.00 0.00 85 1018.8
20260503015816 5 197 0.0 0.0 0.00 0.00 0.00 83 1018.7
20260503015313 6 197 0.0 0.0 0.00 0.00 0.00 83 1018.5
20260503014809 6 197 0.0 0.0 0.00 0.00 0.00 82 1018.5
20260503014307 6 197 0.0 0.0 0.00 0.00 0.00 83 1018.4
20260503013804 6 197 0.0 0.0 0.00 0.00 0.00 81 1018.3
20260503013301 6 197 0.0 0.0 0.00 0.00 0.00 79 1018.0
20260503012758 7 197 0.0 0.0 0.00 0.00 0.00 77 1018.1
20260503012255 7 197 0.0 0.0 0.00 0.00 0.00 78 1018.2
20260503011752 7 197 0.0 0.0 0.00 0.00 0.00 77 1018.2
20260503011249 7 197 0.0 0.0 0.00 0.00 0.00 77 1018.2
20260503010745 7 197 0.0 0.0 0.00 0.00 0.00 75 1017.9
20260503010242 7 197 0.0 0.0 0.00 0.00 0.00 75 1017.7
20260503005740 7 197 0.0 0.0 0.00 0.00 0.00 74 1017.8
20260503005237 8 197 0.0 0.0 0.00 0.00 0.00 75 1017.8
20260503004733 8 197 0.0 0.0 0.00 0.00 0.00 72 1017.7
20260503004231 8 197 0.0 0.0 0.00 0.00 0.00 74 1017.8
20260503003728 8 197 0.0 0.0 0.00 0.00 0.00 72 1017.6
20260503003225 8 197 0.0 0.0 0.00 0.00 0.00 71 1017.6
20260503002722 8 197 0.0 0.0 0.00 0.00 0.00 70 1017.3
20260503002219 9 197 0.0 0.0 0.00 0.00 0.00 66 1017.5
20260503001715 9 196 0.0 0.0 0.00 0.00 0.00 67 1017.3
20260503001212 9 196 0.0 0.0 0.00 0.00 0.00 65 1017.3
20260503000710 10 203 0.0 0.0 0.00 0.00 0.00 59 1017.4
20260503000207 10 203 0.0 0.0 0.00 0.00 0.00 60 1017.2
20260502235703 10 222 0.0 0.0 0.00 0.00 0.00 55 1017.3
20260502235201 11 105 0.0 0.0 0.00 0.00 0.00 53 1017.2
20260502234657 10 98 3.2 4.8 0.00 0.00 0.00 51 1017.2
20260502234155 10 223 0.0 1.6 0.00 0.00 0.00 59 1017.4
20260502233650 10 177 0.0 1.6 0.00 0.00 0.00 54 1016.9
20260502233147 10 109 1.6 1.6 0.00 0.00 0.00 55 1016.9
20260502232643 11 216 0.0 1.6 0.00 0.00 0.00 55 1017.0
20260502232141 11 237 0.0 0.0 0.00 0.00 0.00 54 1017.0
20260502231637 11 237 0.0 0.0 0.00 0.00 0.00 53 1017.0
20260502231135 11 238 0.0 0.0 0.00 0.00 0.00 49 1016.9
20260502230633 11 230 1.6 3.2 0.00 0.00 0.00 45 1016.9
20260502230132 11 220 1.6 1.6 0.00 0.00 0.00 45 1017.0
20260502225626 11 102 1.6 3.2 0.00 0.00 0.00 46 1016.9
20260502225125 11 96 3.2 3.2 0.00 0.00 0.00 44 1017.0
20260502224620 12 230 0.0 3.2 0.00 0.00 0.00 45 1016.7
20260502224117 12 144 0.0 1.6 0.00 0.00 0.00 43 1016.7
20260502223615 12 74 1.6 1.6 0.00 0.00 0.00 42 1016.9
20260502223113 12 298 3.2 4.8 0.00 0.00 0.00 42 1016.8
20260502222610 12 196 0.0 3.2 0.00 0.00 0.00 45 1016.8
20260502222106 12 125 1.6 1.6 0.00 0.00 0.00 46 1017.0
20260502221602 12 88 0.0 3.2 0.00 0.00 0.00 45 1016.7
20260502221100 12 77 3.2 4.8 0.00 0.00 0.00 42 1016.8
20260502220555 12 36 3.2 4.8 0.00 0.00 0.00 46 1016.7
20260502220052 12 133 0.0 6.4 0.00 0.00 0.00 43 1016.8
20260502215549 12 293 1.6 4.8 0.00 0.00 0.00 44 1016.7
20260502215046 12 226 4.8 4.8 0.00 0.00 0.00 45 1016.7
20260502214543 12 58 3.2 4.8 0.00 0.00 0.00 44 1016.5
20260502214041 12 206 1.6 1.6 0.00 0.00 0.00 50 1016.8
20260502213537 12 291 0.0 1.6 0.00 0.00 0.00 45 1016.4
20260502213035 12 13 3.2 6.4 0.00 0.00 0.00 44 1016.6
20260502212534 12 82 1.6 3.2 0.00 0.00 0.00 47 1016.4
20260502212031 12 212 1.6 3.2 0.00 0.00 0.00 45 1016.4
20260502211526 12 210 0.0 3.2 0.00 0.00 0.00 45 1016.4
20260502211024 12 242 1.6 1.6 0.00 0.00 0.00 46 1016.6
20260502210521 12 226 0.0 1.6 0.00 0.00 0.00 44 1016.5
20260502210018 12 45 3.2 4.8 0.00 0.00 0.00 47 1016.5
20260502205514 12 27 0.0 3.2 0.00 0.00 0.00 45 1016.5
20260502205011 12 39 4.8 11.3 0.00 0.00 0.00 44 1016.5
20260502204508 12 24 1.6 6.4 0.00 0.00 0.00 43 1016.7
20260502204007 12 7 3.2 9.7 0.00 0.00 0.00 43 1016.6
20260502203503 12 320 1.6 6.4 0.00 0.00 0.00 44 1016.8
20260502203000 12 49 0.0 3.2 0.00 0.00 0.00 43 1016.7
20260502202456 12 191 3.2 3.2 0.00 0.00 0.00 42 1017.0
20260502201955 12 187 3.2 4.8 0.00 0.00 0.00 43 1016.5
20260502201450 12 226 3.2 3.2 0.00 0.00 0.00 48 1016.6
20260502200947 12 220 3.2 4.8 0.00 0.00 0.00 43 1016.8
20260502200443 12 75 14.5 20.9 0.00 0.00 0.00 41 1016.6
20260502195940 12 222 1.6 3.2 0.00 0.00 0.00 43 1016.7
20260502195437 12 269 0.0 3.2 0.00 0.00 0.00 46 1016.9
20260502194934 13 107 1.6 9.7 0.00 0.00 0.00 43 1016.9
20260502194431 13 315 0.0 1.6 0.00 0.00 0.00 50 1016.8
20260502193926 12 85 4.8 9.7 0.00 0.00 0.00 41 1017.0
20260502193424 12 196 1.6 3.2 0.00 0.00 0.00 44 1016.9
20260502192919 12 210 1.6 9.7 0.00 0.00 0.00 41 1017.3
20260502192416 13 327 4.8 4.8 0.00 0.00 0.00 40 1017.3
20260502191914 13 148 1.6 4.8 0.00 0.00 0.00 43 1017.3
20260502191411 12 52 1.6 4.8 0.00 0.00 0.00 41 1017.3
20260502190909 12 266 4.8 4.8 0.00 0.00 0.00 46 1017.4
20260502190406 12 231 1.6 4.8 0.00 0.00 0.00 44 1017.4
20260502185902 12 93 0.0 3.2 0.00 0.00 0.00 45 1017.5
20260502185357 12 47 0.0 3.2 0.00 0.00 0.00 45 1017.5
20260502184855 12 75 3.2 3.2 0.00 0.00 0.00 42 1017.9
20260502184350 12 88 0.0 4.8 0.00 0.00 0.00 41 1017.5
20260502183847 11 113 1.6 3.2 0.00 0.00 0.00 45 1017.5
20260502183343 12 33 8.0 12.9 0.00 0.00 0.00 41 1017.6
20260502182838 12 229 1.6 11.3 0.00 0.00 0.00 43 1017.6
20260502182334 12 101 1.6 3.2 0.00 0.00 0.00 42 1017.5
20260502181830 11 77 1.6 3.2 0.00 0.00 0.00 45 1017.4
20260502181330 11 87 0.0 4.8 0.00 0.00 0.00 42 1017.5
20260502180827 12 318 1.6 3.2 0.00 0.00 0.00 46 1017.4
20260502180324 12 317 0.0 3.2 0.00 0.00 0.00 43 1017.6
20260502170237 12 80 3.2 12.9 0.00 0.00 0.00 42 1018.1
20260502164225 11 44 0.0 3.2 0.00 0.00 0.00 45 1018.1
20260502163720 11 62 3.2 6.4 0.00 0.00 0.00 44 1018.1
20260502163217 12 84 1.6 3.2 0.00 0.00 0.00 46 1018.1
20260502162714 12 232 4.8 6.4 0.00 0.00 0.00 43 1018.0
20260502162211 12 72 8.0 11.3 0.00 0.00 0.00 43 1018.1
20260502161708 11 97 11.3 22.5 0.00 0.00 0.00 46 1018.3
20260502161204 12 55 4.8 4.8 0.00 0.00 0.00 46 1018.2
20260502160703 12 53 1.6 4.8 0.00 0.00 0.00 44 1018.1
20260502160202 11 21 0.0 4.8 0.00 0.00 0.00 49 1018.2
20260502152114 11 38 1.6 6.4 0.00 0.00 0.00 58 1018.4
20260502151612 11 165 1.6 6.4 0.00 0.00 0.00 53 1018.4
20260502151109 11 320 3.2 9.7 0.00 0.00 0.00 56 1018.4
20260502150607 12 308 6.4 11.3 0.00 0.00 0.00 49 1018.2
20260502130451 5 86 0.0 0.0 0.00 0.00 0.00 99 1018.5
20260502123434 3 86 0.0 0.0 0.00 0.00 0.00 99 1018.7
20260502122931 2 86 0.0 0.0 0.00 0.00 0.00 99 1018.5
20260502122427 2 86 0.0 0.0 0.00 0.00 0.00 99 1018.5
20260502121925 2 86 0.0 0.0 0.00 0.00 0.00 99 1018.3
20260502121422 2 86 0.0 0.0 0.00 0.00 0.00 99 1018.3
20260502120920 2 86 0.0 0.0 0.00 0.00 0.00 99 1018.5
20260502120416 1 86 0.0 0.0 0.00 0.00 0.00 99 1018.3
20260502115913 1 86 0.0 0.0 0.00 0.00 0.00 99 1018.4
20260502115410 1 86 0.0 0.0 0.00 0.00 0.00 99 1018.4
20260502114906 1 86 0.0 0.0 0.00 0.00 0.00 99 1018.6
20260502114403 1 86 0.0 0.0 0.00 0.00 0.00 99 1018.5
20260502113900 1 86 0.0 0.0 0.00 0.00 0.00 99 1018.4
20260502113358 1 86 0.0 0.0 0.00 0.00 0.00 99 1018.5
20260502112856 1 86 0.0 0.0 0.00 0.00 0.00 99 1018.6
20260502112353 0 86 0.0 0.0 0.00 0.00 0.00 99 1018.4
20260502111850 0 86 0.0 0.0 0.00 0.00 0.00 99 1018.3
20260502111348 0 86 0.0 0.0 0.00 0.00 0.00 99 1018.1
20260502110845 0 86 0.0 0.0 0.00 0.00 0.00 99 1017.9
20260502110343 0 86 0.0 0.0 0.00 0.00 0.00 99 1018.3
20260502105840 0 86 0.0 0.0 0.00 0.00 0.00 99 1018.0
20260502105337 0 86 0.0 0.0 0.00 0.00 0.00 99 1018.1
20260502104835 0 86 0.0 0.0 0.00 0.00 0.00 99 1018.1
20260502104332 0 86 0.0 0.0 0.00 0.00 0.00 99 1017.9
20260502103829 0 86 0.0 0.0 0.00 0.00 0.00 99 1018.0
20260502103326 0 86 0.0 0.0 0.00 0.00 0.00 99 1017.9
20260502102824 0 86 0.0 0.0 0.00 0.00 0.00 99 1017.8
20260502102320 0 86 0.0 0.0 0.00 0.00 0.00 99 1017.6
20260502101818 0 86 0.0 0.0 0.00 0.00 0.00 99 1017.9
20260502101316 0 86 0.0 0.0 0.00 0.00 0.00 99 1018.2
20260502100814 0 86 0.0 0.0 0.00 0.00 0.00 99 1018.3
20260502100313 0 86 0.0 0.0 0.00 0.00 0.00 99 1018.4
20260502091247 1 86 0.0 0.0 0.00 0.00 0.00 99 1018.4
20260502090744 1 86 0.0 0.0 0.00 0.00 0.00 99 1018.5
20260502090240 0 86 0.0 0.0 0.00 0.00 0.00 99 1018.6
20260502071141 1 86 0.0 0.0 0.00 0.00 0.00 99 1018.1
20260502070639 1 86 0.0 0.0 0.00 0.00 0.00 99 1017.7
20260502070137 1 86 0.0 0.0 0.00 0.00 0.00 99 1018.0
20260502065635 1 86 0.0 0.0 0.00 0.00 0.00 99 1017.8
20260502065132 1 86 0.0 0.0 0.00 0.00 0.00 99 1017.9
20260502064631 1 86 0.0 0.0 0.00 0.00 0.00 99 1017.8
20260502064128 2 86 0.0 0.0 0.00 0.00 0.00 99 1017.8
20260502063625 2 86 0.0 0.0 0.00 0.00 0.00 99 1018.1
20260502063123 2 86 0.0 0.0 0.00 0.00 0.00 99 1018.1
20260502062620 2 86 0.0 0.0 0.00 0.00 0.00 99 1018.0
20260502062118 2 86 0.0 0.0 0.00 0.00 0.00 99 1018.2
20260502061615 2 86 0.0 0.0 0.00 0.00 0.00 98 1018.4
20260502061113 2 86 0.0 0.0 0.00 0.00 0.00 98 1018.3
20260502060607 2 86 0.0 0.0 0.00 0.00 0.00 98 1018.7
20260502060104 2 86 0.0 0.0 0.00 0.00 0.00 98 1018.5
20260502055601 2 86 0.0 0.0 0.00 0.00 0.00 98 1018.6
20260502055100 2 86 0.0 0.0 0.00 0.00 0.00 98 1018.5
20260502054558 2 86 0.0 0.0 0.00 0.00 0.00 97 1018.5
20260502054055 3 86 0.0 0.0 0.00 0.00 0.00 97 1018.4
20260502053552 3 86 0.0 0.0 0.00 0.00 0.00 97 1018.5
20260502053050 3 86 0.0 0.0 0.00 0.00 0.00 97 1018.6
20260502052548 3 86 0.0 0.0 0.00 0.00 0.00 96 1018.9
20260502052046 3 86 0.0 0.0 0.00 0.00 0.00 96 1018.7
20260502051544 3 86 0.0 0.0 0.00 0.00 0.00 95 1018.5
20260502051041 3 86 0.0 0.0 0.00 0.00 0.00 95 1018.6
20260502050537 4 86 0.0 0.0 0.00 0.00 0.00 95 1018.7
20260502050034 4 86 0.0 0.0 0.00 0.00 0.00 94 1018.9
20260502045531 4 86 0.0 0.0 0.00 0.00 0.00 94 1018.7
20260502045028 5 86 0.0 0.0 0.00 0.00 0.00 94 1018.8
20260502044524 5 86 0.0 0.0 0.00 0.00 0.00 92 1018.7
20260502044021 5 86 0.0 0.0 0.00 0.00 0.00 92 1018.7
20260502043519 5 86 0.0 0.0 0.00 0.00 0.00 92 1018.8
20260502043015 5 86 0.0 0.0 0.00 0.00 0.00 92 1018.6
20260502042510 5 86 0.0 0.0 0.00 0.00 0.00 91 1018.7
20260502042008 5 86 0.0 0.0 0.00 0.00 0.00 90 1018.9
20260502041506 5 86 0.0 0.0 0.00 0.00 0.00 90 1018.7
20260502041002 6 86 0.0 0.0 0.00 0.00 0.00 90 1018.6
20260502040458 6 86 0.0 0.0 0.00 0.00 0.00 88 1018.6
20260502035955 6 86 0.0 0.0 0.00 0.00 0.00 88 1018.5
20260502035451 6 86 0.0 0.0 0.00 0.00 0.00 87 1018.5
20260502034949 6 86 0.0 0.0 0.00 0.00 0.00 87 1018.5
20260502034447 6 86 0.0 0.0 0.00 0.00 0.00 86 1018.4
20260502033945 6 86 0.0 0.0 0.00 0.00 0.00 85 1018.6
20260502033443 7 86 0.0 0.0 0.00 0.00 0.00 84 1018.8
20260502032939 7 86 0.0 0.0 0.00 0.00 0.00 84 1018.6
20260502032436 7 86 0.0 0.0 0.00 0.00 0.00 83 1018.7
20260502031933 7 86 0.0 0.0 0.00 0.00 0.00 83 1018.8
20260502031431 7 86 0.0 0.0 0.00 0.00 0.00 81 1018.7
20260502030929 7 86 0.0 0.0 0.00 0.00 0.00 80 1018.9
20260502030427 7 86 0.0 0.0 0.00 0.00 0.00 80 1018.7
20260502025925 7 86 0.0 0.0 0.00 0.00 0.00 78 1018.7
20260502025421 8 85 0.0 0.0 0.00 0.00 0.00 76 1018.6
20260502024919 8 86 0.0 0.0 0.00 0.00 0.00 76 1018.9
20260502024418 8 85 0.0 0.0 0.00 0.00 0.00 75 1018.6
20260502023915 9 85 0.0 0.0 0.00 0.00 0.00 73 1018.6
20260502023412 9 86 0.0 0.0 0.00 0.00 0.00 73 1018.4
20260502022910 9 86 0.0 0.0 0.00 0.00 0.00 72 1018.7
20260502022406 9 22 0.0 0.0 0.00 0.00 0.00 71 1018.6